Regional Weather Roundup
Issued by NWS

Home | Current Version | Previous Version | Text Only | Print | Product List | Glossary On
Versions: 1 2 3 4 5 6 7 8 9 10 11 12 13 14 15 16 17 18 19 20 21 22 23 24 25 26 27 28 29 30 31 32 33 34 35 36 37 38 39 40 41 42 43 44 45 46 47 48 49 50
000
ASUS44 KFWD 311103
RWRTX
NORTH TEXAS HOURLY WEATHER ROUNDUP
NATIONAL WEATHER SERVICE FORT WORTH TX
600 AM CDT MON AUG 31 2015

NOTE: "FAIR" INDICATES FEW OR NO CLOUDS BELOW 12,000 FEET WITH NO
SIGNIFICANT WEATHER AND/OR OBSTRUCTIONS TO VISIBILITY.

TXZ118-119-311200-
DALLAS/FORT WORTH METROPLEX

CITY           SKY/WX    TMP DP  RH WIND       PRES   REMARKS
DFW AIRPORT    MOCLDY    77  65  66 S8        29.98R
DALLAS LOVE    MOCLDY    78  65  63 S8        29.99R
FTW MEACHAM    CLEAR     75  65  70 CALM      29.99R
DAL-EXECUTIVE  MOCLDY    74  65  73 S5        29.99R
FTW-ALLIANCE   PTCLDY    73  65  75 S3        29.99R
FTW-NAS-JRB    PTCLDY    74  65  73 S7        29.99R
ARLINGTON      CLEAR     73  64  73 SE3       29.99R
GRAND PRAIRIE  CLEAR     74  66  77 CALM      30.01R
MESQUITE       CLOUDY    71  67  87 S3        30.00R
LANCASTER      CLOUDY    71  64  78 CALM      30.00S
$$

TXZ091>094-102>105-117-120-121-131>134-311200-
NORTH CENTRAL TEXAS

CITY           SKY/WX    TMP DP  RH WIND       PRES   REMARKS
SHRMAN/DENISON MOCLDY    76  67  76 S7        30.00S
BOWIE          CLEAR     68  63  83 SE3       30.00R
BRIDGEPORT     CLEAR     67  64  91 CALM      30.01R
DECATUR        CLEAR     73  61  65 S6        30.00S
DENTON         PTCLDY    73  65  75 S5        29.99R
MCKINNEY       CLEAR     73  66  78 S5        30.00R
ROCKWALL       PTCLDY    74  66  76 S6        29.99R
TERRELL        PTCLDY    73  66  78 SE3       30.00R
WAXAHACHIE     CLEAR     68  65  88 CALM      30.01R
CLEBURNE         N/A     70  68  94 SE3       30.01S
$$

TXZ083>090-098>101-113>116-127>130-139>142-154-155-311200-
WESTERN NORTH TEXAS

CITY           SKY/WX    TMP DP  RH WIND       PRES   REMARKS
WICHITA FALLS  CLEAR     71  62  73 S9        29.96R
WF-KICKAPOO    CLEAR     72  63  73 S7        29.98R
VERNON         PTCLDY    75  54  48 SW6       29.97R
ABILENE        CLEAR     70  59  68 S7        30.01R
ABILENE-DYESS  CLEAR     71  59  65 S5        30.00R
BRECKENRIDGE   CLEAR     72  61  67 S7        29.98S
MINERAL WELLS  CLEAR     68  63  84 SE7       29.99R
STEPHENVILLE   CLEAR     68  63  83 CALM      30.03S
COMANCHE       CLEAR     67  64  91 S5        30.02R
COLEMAN        CLEAR     66  61  84 CALM      30.03R
BRADY          CLEAR     68  64  88 SE6       30.02S
$$

TXZ143>147-156>162-174-175-311200-
CENTRAL TEXAS

CITY           SKY/WX    TMP DP  RH WIND       PRES   REMARKS
WACO           PTCLDY    73  68  84 S6        29.99R
CORSICANA      CLEAR     72  65  78 S7        30.01R
MEXIA          PTCLDY    69  64  86 S5        29.99S
HEARNE         CLOUDY    72  69  92 CALM      30.01R
CAMERON        PTCLDY    73  69  89 SE3       29.99S
TEMPLE         PTCLDY    72  64  78 S6        30.00R
KILLEEN        MOCLDY    72  68  86 S5        29.99S
KILLEEN-SKYLRK PTCLDY    73  64  73 S5        29.98S
FORT HOOD      CLOUDY    73  68  84 S2        29.99R
GATESVILLE     PTCLDY    70  66  88 CALM      30.02R
HAMILTON       PTCLDY    68  66  92 S6        30.01S
$$

TXZ095>097-106>112-122>126-135>138-148>153-164>167-311200-
EAST TEXAS

CITY           SKY/WX    TMP DP  RH WIND       PRES   REMARKS
PARIS          CLEAR     72  61  68 CALM      30.01R
SULPHUR SPRNGS CLEAR     73  65  78 CALM      30.02R
MOUNT PLEASANT CLEAR     67  67 100 CALM      30.02R
GILMER         PTCLDY    68  66  93 CALM      30.01R
MINEOLA        CLEAR     68  68 100 CALM      30.01R
TYLER          CLEAR     71  65  81 S7        30.01R
LONGVIEW       PTCLDY    72  66  81 CALM      30.00R
MARSHALL       PTCLDY    71  69  92 CALM      30.03R
ATHENS         CLEAR     66  64  94 CALM      29.99S
JACKSONVILLE   MOCLDY    74  66  78 S3        30.04R
HENDERSON      PTCLDY    68  66  94 CALM      30.03R
CENTER         FAIR      71  67  87 CALM      30.01S
NACOGDOCHES    MOCLDY    66  64  94 CALM      30.01S
LUFKIN         MOCLDY    69  66  90 CALM      30.01R
$$

SUPPLEMENTAL OBSERVATIONS (CENTRAL)

CITY           SKY/WX    TMP DP  RH WIND       PRES   REMARKS
$$

SUPPLEMENTAL OBSERVATIONS (WEST)

CITY           SKY/WX    TMP DP  RH WIND       PRES   REMARKS
$$

SUPPLEMENTAL OBSERVATIONS (EAST)

CITY           SKY/WX    TMP DP  RH WIND       PRES   REMARKS
$$

SUPPLEMENTAL OBSERVATIONS ARE A COLLECTION OF AUTOMATED INSTRUMENTS
THAT ARE MAINTAINED BY A VARIETY OF FEDERAL AND STATE AGENCIES.
CERTAIN ELEMENTS...SUCH AS HUMIDITY VALUES AND SUSTAINED WIND
SPEEDS...MAY BE APPROXIMATED.



USA.gov is the U.S. government's official web portal to all federal, state and local government web resources and services.